| time (UTC) | temp C | wind direction | speed KPH | gust KPH | rain 1hr cm | rain 24hr cm | rain mn cm | humidity % | barometer mb |
| 20260505152940 | 21 | 127 | 3.2 | 6.4 | 0.00 | 0.00 | 0.00 | 90 | 1012.2 |
| 20260505152437 | 21 | 101 | 1.6 | 9.7 | 0.00 | 0.00 | 0.00 | 90 | 1011.8 |
| 20260505151932 | 21 | 132 | 8.0 | 9.7 | 0.00 | 0.00 | 0.00 | 90 | 1011.9 |
| 20260505151428 | 20 | 116 | 1.6 | 6.4 | 0.00 | 0.00 | 0.00 | 90 | 1011.6 |
| 20260505150925 | 20 | 80 | 3.2 | 3.2 | 0.00 | 0.00 | 0.00 | 91 | 1011.8 |
| 20260505150422 | 20 | 101 | 1.6 | 11.3 | 0.00 | 0.00 | 0.00 | 91 | 1011.6 |
| 20260505140352 | 20 | 157 | 3.2 | 9.7 | 0.00 | 0.00 | 0.00 | 92 | 1011.5 |
| 20260505124806 | 18 | 113 | 3.2 | 6.4 | 0.00 | 0.00 | 0.00 | 92 | 1011.9 |
| 20260505124302 | 18 | 103 | 0.0 | 9.7 | 0.00 | 0.00 | 0.00 | 92 | 1011.7 |
| 20260505123758 | 18 | 103 | 3.2 | 14.5 | 0.00 | 0.00 | 0.00 | 92 | 1011.6 |
| 20260505123255 | 18 | 108 | 4.8 | 11.3 | 0.00 | 0.00 | 0.00 | 92 | 1011.4 |
| 20260505122751 | 18 | 123 | 8.0 | 11.3 | 0.00 | 0.00 | 0.00 | 92 | 1011.2 |
| 20260505122249 | 18 | 106 | 1.6 | 6.4 | 0.00 | 0.00 | 0.00 | 92 | 1011.3 |
| 20260505121745 | 18 | 109 | 3.2 | 6.4 | 0.00 | 0.00 | 0.00 | 92 | 1011.2 |
| 20260505121242 | 18 | 113 | 1.6 | 3.2 | 0.00 | 0.00 | 0.00 | 92 | 1011.5 |
| 20260505120738 | 18 | 114 | 3.2 | 6.4 | 0.00 | 0.00 | 0.00 | 92 | 1011.3 |
| 20260505120234 | 18 | 93 | 0.0 | 9.7 | 0.00 | 0.00 | 0.00 | 92 | 1011.4 |
| 20260505115733 | 18 | 166 | 8.0 | 17.7 | 0.00 | 0.00 | 0.00 | 92 | 1011.5 |
| 20260505115231 | 18 | 139 | 9.7 | 14.5 | 0.00 | 0.00 | 0.00 | 92 | 1011.3 |
| 20260505114728 | 18 | 111 | 3.2 | 11.3 | 0.00 | 0.00 | 0.00 | 92 | 1011.1 |
| 20260505114224 | 18 | 148 | 3.2 | 9.7 | 0.00 | 0.00 | 0.00 | 92 | 1011.2 |
| 20260505113721 | 18 | 104 | 1.6 | 9.7 | 0.00 | 0.00 | 0.00 | 92 | 1011.1 |
| 20260505113217 | 18 | 146 | 6.4 | 6.4 | 0.00 | 0.00 | 0.00 | 92 | 1011.2 |
| 20260505112713 | 18 | 102 | 1.6 | 9.7 | 0.00 | 0.00 | 0.00 | 92 | 1011.2 |
| 20260505112211 | 18 | 115 | 0.0 | 3.2 | 0.00 | 0.00 | 0.00 | 92 | 1010.8 |
| 20260505111706 | 18 | 105 | 3.2 | 9.7 | 0.00 | 0.00 | 0.00 | 92 | 1010.8 |
| 20260505111202 | 18 | 118 | 3.2 | 14.5 | 0.00 | 0.00 | 0.00 | 92 | 1011.1 |
| 20260505110658 | 18 | 99 | 3.2 | 3.2 | 0.00 | 0.00 | 0.00 | 92 | 1011.1 |
| 20260505110155 | 18 | 107 | 6.4 | 11.3 | 0.00 | 0.00 | 0.00 | 92 | 1011.1 |
| 20260505102131 | 18 | 123 | 8.0 | 14.5 | 0.00 | 0.00 | 0.00 | 92 | 1010.9 |
| 20260505101630 | 18 | 122 | 1.6 | 9.7 | 0.00 | 0.00 | 0.00 | 92 | 1011.2 |
| 20260505101125 | 18 | 115 | 3.2 | 11.3 | 0.00 | 0.00 | 0.00 | 92 | 1010.9 |
| 20260505100621 | 18 | 116 | 3.2 | 9.7 | 0.00 | 0.00 | 0.00 | 91 | 1011.1 |
| 20260505100119 | 18 | 114 | 1.6 | 6.4 | 0.00 | 0.00 | 0.00 | 91 | 1011.3 |
| 20260505095615 | 18 | 140 | 8.0 | 17.7 | 0.00 | 0.00 | 0.00 | 91 | 1011.5 |
| 20260505095112 | 18 | 115 | 1.6 | 6.4 | 0.00 | 0.00 | 0.00 | 91 | 1011.3 |
| 20260505094608 | 18 | 97 | 0.0 | 3.2 | 0.00 | 0.00 | 0.00 | 91 | 1011.5 |
| 20260505094104 | 18 | 147 | 4.8 | 11.3 | 0.00 | 0.00 | 0.00 | 91 | 1011.6 |
| 20260505093601 | 18 | 106 | 3.2 | 9.7 | 0.00 | 0.00 | 0.00 | 91 | 1011.6 |
| 20260505093058 | 18 | 107 | 0.0 | 3.2 | 0.00 | 0.00 | 0.00 | 91 | 1011.5 |
| 20260505092555 | 18 | 99 | 0.0 | 9.7 | 0.00 | 0.00 | 0.00 | 90 | 1011.6 |
| 20260505092053 | 18 | 102 | 0.0 | 9.7 | 0.00 | 0.00 | 0.00 | 90 | 1011.8 |
| 20260505091550 | 18 | 100 | 3.2 | 6.4 | 0.00 | 0.00 | 0.00 | 90 | 1011.5 |
| 20260505091049 | 18 | 109 | 3.2 | 9.7 | 0.00 | 0.00 | 0.00 | 90 | 1011.5 |
| 20260505090546 | 18 | 201 | 8.0 | 14.5 | 0.00 | 0.00 | 0.00 | 90 | 1011.7 |
| 20260505090044 | 18 | 101 | 3.2 | 6.4 | 0.00 | 0.00 | 0.00 | 90 | 1011.7 |
| 20260505085542 | 18 | 130 | 6.4 | 9.7 | 0.00 | 0.00 | 0.00 | 90 | 1011.8 |
| 20260505085040 | 18 | 105 | 0.0 | 11.3 | 0.00 | 0.00 | 0.00 | 89 | 1011.9 |
| 20260505084537 | 18 | 100 | 3.2 | 11.3 | 0.00 | 0.00 | 0.00 | 89 | 1011.9 |
| 20260505084035 | 18 | 111 | 0.0 | 17.7 | 0.00 | 0.00 | 0.00 | 89 | 1011.9 |
| 20260505083532 | 18 | 110 | 3.2 | 6.4 | 0.00 | 0.00 | 0.00 | 89 | 1011.9 |
| 20260505083029 | 18 | 103 | 0.0 | 20.9 | 0.00 | 0.00 | 0.00 | 89 | 1011.8 |
| 20260505082524 | 18 | 125 | 3.2 | 9.7 | 0.00 | 0.00 | 0.00 | 89 | 1011.9 |
| 20260505082021 | 18 | 149 | 3.2 | 9.7 | 0.00 | 0.00 | 0.00 | 89 | 1012.1 |
| 20260505081518 | 18 | 136 | 3.2 | 6.4 | 0.00 | 0.00 | 0.00 | 89 | 1011.9 |
| 20260505081015 | 18 | 117 | 4.8 | 9.7 | 0.00 | 0.00 | 0.00 | 88 | 1012.1 |
| 20260505080511 | 18 | 132 | 8.0 | 9.7 | 0.00 | 0.00 | 0.00 | 88 | 1011.9 |
| 20260505080008 | 18 | 158 | 4.8 | 6.4 | 0.00 | 0.00 | 0.00 | 88 | 1012.3 |
| 20260505075504 | 18 | 150 | 4.8 | 6.4 | 0.00 | 0.00 | 0.00 | 88 | 1012.2 |
| 20260505075001 | 18 | 115 | 1.6 | 11.3 | 0.00 | 0.00 | 0.00 | 88 | 1012.1 |
| 20260505074458 | 18 | 117 | 0.0 | 11.3 | 0.00 | 0.00 | 0.00 | 88 | 1011.9 |
| 20260505073955 | 18 | 114 | 4.8 | 9.7 | 0.00 | 0.00 | 0.00 | 87 | 1012.4 |
| 20260505073453 | 18 | 117 | 0.0 | 6.4 | 0.00 | 0.00 | 0.00 | 87 | 1012.3 |
| 20260505072950 | 18 | 158 | 4.8 | 9.7 | 0.00 | 0.00 | 0.00 | 87 | 1012.2 |
| 20260505072446 | 18 | 150 | 3.2 | 9.7 | 0.00 | 0.00 | 0.00 | 87 | 1012.1 |
| 20260505071942 | 18 | 120 | 11.3 | 14.5 | 0.00 | 0.00 | 0.00 | 87 | 1012.2 |
| 20260505071438 | 19 | 121 | 3.2 | 9.7 | 0.00 | 0.00 | 0.00 | 86 | 1012.4 |
| 20260505070937 | 19 | 107 | 0.0 | 9.7 | 0.00 | 0.00 | 0.00 | 86 | 1012.4 |
| 20260505070433 | 19 | 119 | 4.8 | 6.4 | 0.00 | 0.00 | 0.00 | 86 | 1012.2 |
| 20260505065928 | 19 | 111 | 4.8 | 6.4 | 0.00 | 0.00 | 0.00 | 86 | 1012.6 |
| 20260505065425 | 19 | 111 | 0.0 | 3.2 | 0.00 | 0.00 | 0.00 | 85 | 1012.8 |
| 20260505064922 | 19 | 112 | 3.2 | 9.7 | 0.00 | 0.00 | 0.00 | 85 | 1012.9 |
| 20260505064419 | 19 | 113 | 1.6 | 24.1 | 0.00 | 0.00 | 0.00 | 85 | 1013.0 |
| 20260505063918 | 19 | 119 | 6.4 | 11.3 | 0.00 | 0.00 | 0.00 | 85 | 1012.9 |
| 20260505063413 | 19 | 108 | 0.0 | 11.3 | 0.00 | 0.00 | 0.00 | 85 | 1013.1 |
| 20260505062910 | 19 | 109 | 3.2 | 9.7 | 0.00 | 0.00 | 0.00 | 84 | 1013.0 |
| 20260505062407 | 19 | 97 | 0.0 | 6.4 | 0.00 | 0.00 | 0.00 | 84 | 1013.0 |
| 20260505061904 | 19 | 107 | 0.0 | 3.2 | 0.00 | 0.00 | 0.00 | 84 | 1013.1 |
| 20260505061403 | 20 | 115 | 8.0 | 14.5 | 0.00 | 0.00 | 0.00 | 83 | 1013.1 |
| 20260505060859 | 20 | 116 | 4.8 | 6.4 | 0.00 | 0.00 | 0.00 | 83 | 1013.4 |
| 20260505060356 | 20 | 110 | 1.6 | 9.7 | 0.00 | 0.00 | 0.00 | 83 | 1012.9 |
| 20260505055852 | 20 | 118 | 6.4 | 9.7 | 0.00 | 0.00 | 0.00 | 83 | 1013.0 |
| 20260505055348 | 20 | 109 | 1.6 | 11.3 | 0.00 | 0.00 | 0.00 | 82 | 1013.1 |
| 20260505054845 | 20 | 115 | 3.2 | 14.5 | 0.00 | 0.00 | 0.00 | 82 | 1013.2 |
| 20260505054343 | 20 | 121 | 1.6 | 11.3 | 0.00 | 0.00 | 0.00 | 82 | 1013.2 |
| 20260505053841 | 20 | 101 | 6.4 | 11.3 | 0.00 | 0.00 | 0.00 | 81 | 1013.1 |
| 20260505053338 | 20 | 211 | 8.0 | 11.3 | 0.00 | 0.00 | 0.00 | 81 | 1013.1 |
| 20260505052834 | 20 | 110 | 8.0 | 14.5 | 0.00 | 0.00 | 0.00 | 81 | 1013.2 |
| 20260505052331 | 20 | 212 | 11.3 | 14.5 | 0.00 | 0.00 | 0.00 | 81 | 1013.2 |
| 20260505051828 | 20 | 121 | 3.2 | 14.5 | 0.00 | 0.00 | 0.00 | 80 | 1013.2 |
| 20260505051326 | 20 | 98 | 3.2 | 6.4 | 0.00 | 0.00 | 0.00 | 80 | 1012.9 |
| 20260505050824 | 20 | 119 | 3.2 | 6.4 | 0.00 | 0.00 | 0.00 | 80 | 1013.0 |
| 20260505050323 | 20 | 113 | 1.6 | 9.7 | 0.00 | 0.00 | 0.00 | 80 | 1013.3 |
| 20260505041752 | 20 | 121 | 1.6 | 3.2 | 0.00 | 0.00 | 0.00 | 76 | 1013.2 |
| 20260505041249 | 20 | 128 | 8.0 | 14.5 | 0.00 | 0.00 | 0.00 | 75 | 1013.0 |
| 20260505040746 | 20 | 106 | 0.0 | 6.4 | 0.00 | 0.00 | 0.00 | 75 | 1013.1 |
| 20260505040244 | 20 | 101 | 1.6 | 6.4 | 0.00 | 0.00 | 0.00 | 75 | 1013.2 |
| 20260505035741 | 20 | 116 | 3.2 | 3.2 | 0.00 | 0.00 | 0.00 | 75 | 1013.3 |
| 20260505035236 | 20 | 124 | 4.8 | 11.3 | 0.00 | 0.00 | 0.00 | 74 | 1013.4 |
| 20260505034733 | 20 | 108 | 0.0 | 3.2 | 0.00 | 0.00 | 0.00 | 74 | 1013.3 |
| 20260505034230 | 20 | 125 | 3.2 | 6.4 | 0.00 | 0.00 | 0.00 | 73 | 1013.2 |
| 20260505033727 | 20 | 103 | 1.6 | 9.7 | 0.00 | 0.00 | 0.00 | 73 | 1013.3 |
| 20260505033225 | 20 | 183 | 6.4 | 9.7 | 0.00 | 0.00 | 0.00 | 73 | 1013.3 |
| 20260505032722 | 21 | 106 | 0.0 | 6.4 | 0.00 | 0.00 | 0.00 | 72 | 1013.4 |
| 20260505032218 | 21 | 119 | 3.2 | 14.5 | 0.00 | 0.00 | 0.00 | 72 | 1013.2 |
| 20260505031716 | 21 | 110 | 3.2 | 6.4 | 0.00 | 0.00 | 0.00 | 72 | 1013.1 |
| 20260505031212 | 21 | 115 | 1.6 | 9.7 | 0.00 | 0.00 | 0.00 | 71 | 1013.1 |
| 20260505030709 | 21 | 126 | 3.2 | 11.3 | 0.00 | 0.00 | 0.00 | 71 | 1013.2 |
| 20260505030205 | 21 | 128 | 0.0 | 6.4 | 0.00 | 0.00 | 0.00 | 71 | 1013.0 |
| 20260505025701 | 21 | 105 | 0.0 | 3.2 | 0.00 | 0.00 | 0.00 | 71 | 1013.1 |
| 20260505025159 | 21 | 94 | 0.0 | 6.4 | 0.00 | 0.00 | 0.00 | 70 | 1013.1 |
| 20260505024657 | 21 | 106 | 1.6 | 6.4 | 0.00 | 0.00 | 0.00 | 70 | 1012.9 |
| 20260505024154 | 21 | 113 | 0.0 | 6.4 | 0.00 | 0.00 | 0.00 | 69 | 1013.0 |
| 20260505023652 | 21 | 108 | 0.0 | 3.2 | 0.00 | 0.00 | 0.00 | 69 | 1012.8 |
| 20260505023149 | 21 | 132 | 1.6 | 9.7 | 0.00 | 0.00 | 0.00 | 69 | 1012.6 |
| 20260505022646 | 21 | 107 | 1.6 | 6.4 | 0.00 | 0.00 | 0.00 | 69 | 1013.0 |
| 20260505022143 | 21 | 103 | 0.0 | 3.2 | 0.00 | 0.00 | 0.00 | 69 | 1012.6 |
| 20260505021639 | 21 | 101 | 0.0 | 3.2 | 0.00 | 0.00 | 0.00 | 68 | 1012.9 |
| 20260505021136 | 21 | 115 | 1.6 | 6.4 | 0.00 | 0.00 | 0.00 | 68 | 1012.6 |
| 20260505020632 | 21 | 149 | 4.8 | 6.4 | 0.00 | 0.00 | 0.00 | 69 | 1012.5 |
| 20260505020128 | 21 | 109 | 1.6 | 6.4 | 0.00 | 0.00 | 0.00 | 68 | 1012.4 |
| 20260505015625 | 21 | 111 | 1.6 | 6.4 | 0.00 | 0.00 | 0.00 | 67 | 1012.7 |
| 20260505015121 | 21 | 158 | 3.2 | 6.4 | 0.00 | 0.00 | 0.00 | 67 | 1012.5 |
| 20260505014619 | 21 | 110 | 0.0 | 6.4 | 0.00 | 0.00 | 0.00 | 67 | 1012.4 |
| 20260505014116 | 21 | 103 | 0.0 | 3.2 | 0.00 | 0.00 | 0.00 | 66 | 1012.6 |
| 20260505013613 | 21 | 106 | 0.0 | 9.7 | 0.00 | 0.00 | 0.00 | 65 | 1012.3 |
| 20260505013110 | 22 | 103 | 0.0 | 0.0 | 0.00 | 0.00 | 0.00 | 66 | 1012.5 |
| 20260505012609 | 22 | 112 | 3.2 | 9.7 | 0.00 | 0.00 | 0.00 | 65 | 1012.2 |
| 20260505012105 | 22 | 103 | 0.0 | 3.2 | 0.00 | 0.00 | 0.00 | 65 | 1012.0 |
| 20260505011601 | 22 | 106 | 1.6 | 3.2 | 0.00 | 0.00 | 0.00 | 64 | 1012.2 |
| 20260505011058 | 22 | 107 | 0.0 | 3.2 | 0.00 | 0.00 | 0.00 | 64 | 1012.3 |
| 20260505010553 | 22 | 137 | 4.8 | 6.4 | 0.00 | 0.00 | 0.00 | 63 | 1012.2 |
| 20260505010050 | 22 | 116 | 1.6 | 3.2 | 0.00 | 0.00 | 0.00 | 63 | 1012.2 |
| 20260505005546 | 22 | 106 | 0.0 | 3.2 | 0.00 | 0.00 | 0.00 | 62 | 1012.3 |
| 20260505005044 | 23 | 109 | 0.0 | 6.4 | 0.00 | 0.00 | 0.00 | 61 | 1012.5 |
| 20260505004541 | 23 | 92 | 1.6 | 9.7 | 0.00 | 0.00 | 0.00 | 60 | 1012.4 |
| 20260505004037 | 23 | 112 | 4.8 | 9.7 | 0.00 | 0.00 | 0.00 | 59 | 1012.5 |
| 20260505003535 | 23 | 120 | 3.2 | 6.4 | 0.00 | 0.00 | 0.00 | 60 | 1012.5 |
| 20260505003032 | 23 | 132 | 8.0 | 11.3 | 0.00 | 0.00 | 0.00 | 59 | 1012.4 |
| 20260505002532 | 23 | 165 | 3.2 | 6.4 | 0.00 | 0.00 | 0.00 | 59 | 1012.8 |
| 20260505002032 | 23 | 115 | 9.7 | 11.3 | 0.00 | 0.00 | 0.00 | 57 | 1012.6 |
| 20260505001528 | 24 | 111 | 1.6 | 9.7 | 0.00 | 0.00 | 0.00 | 57 | 1012.6 |
| 20260505001025 | 24 | 113 | 3.2 | 6.4 | 0.00 | 0.00 | 0.00 | 56 | 1012.8 |
| 20260505000523 | 25 | 220 | 8.0 | 14.5 | 0.00 | 0.00 | 0.00 | 55 | 1012.7 |
| 20260505000020 | 25 | 95 | 4.8 | 14.5 | 0.00 | 0.00 | 0.00 | 55 | 1012.8 |
| 20260504235517 | 25 | 99 | 0.0 | 9.7 | 0.00 | 0.00 | 0.00 | 54 | 1012.9 |
| 20260504235013 | 25 | 228 | 9.7 | 11.3 | 0.00 | 0.00 | 0.00 | 53 | 1012.8 |
| 20260504234511 | 25 | 134 | 3.2 | 9.7 | 0.00 | 0.00 | 0.00 | 52 | 1012.9 |
| 20260504234008 | 25 | 31 | 4.8 | 11.3 | 0.00 | 0.00 | 0.00 | 52 | 1012.6 |
| 20260504233502 | 25 | 134 | 6.4 | 11.3 | 0.00 | 0.00 | 0.00 | 51 | 1012.5 |
| 20260504233000 | 26 | 132 | 4.8 | 9.7 | 0.00 | 0.00 | 0.00 | 50 | 1012.7 |
| 20260504232457 | 26 | 138 | 3.2 | 11.3 | 0.00 | 0.00 | 0.00 | 50 | 1013.0 |
| 20260504231955 | 25 | 152 | 8.0 | 17.7 | 0.00 | 0.00 | 0.00 | 50 | 1013.1 |
| 20260504231451 | 26 | 122 | 6.4 | 11.3 | 0.00 | 0.00 | 0.00 | 49 | 1013.1 |
| 20260504230947 | 26 | 115 | 8.0 | 30.6 | 0.00 | 0.00 | 0.00 | 49 | 1013.0 |
| 20260504230444 | 25 | 134 | 4.8 | 17.7 | 0.00 | 0.00 | 0.00 | 49 | 1013.4 |
| 20260504225943 | 25 | 208 | 11.3 | 14.5 | 0.00 | 0.00 | 0.00 | 49 | 1013.4 |
| 20260504225439 | 26 | 143 | 3.2 | 17.7 | 0.00 | 0.00 | 0.00 | 47 | 1013.7 |
| 20260504224936 | 26 | 217 | 6.4 | 11.3 | 0.00 | 0.00 | 0.00 | 47 | 1013.6 |
| 20260504224433 | 26 | 74 | 3.2 | 14.5 | 0.00 | 0.00 | 0.00 | 46 | 1013.4 |
| 20260504223930 | 26 | 164 | 1.6 | 14.5 | 0.00 | 0.00 | 0.00 | 46 | 1013.8 |
| 20260504223425 | 26 | 141 | 9.7 | 17.7 | 0.00 | 0.00 | 0.00 | 46 | 1014.0 |
| 20260504222921 | 26 | 120 | 4.8 | 9.7 | 0.00 | 0.00 | 0.00 | 46 | 1013.8 |
| 20260504222419 | 26 | 202 | 14.5 | 20.9 | 0.00 | 0.00 | 0.00 | 45 | 1013.9 |
| 20260504221917 | 26 | 119 | 3.2 | 20.9 | 0.00 | 0.00 | 0.00 | 48 | 1013.9 |
| 20260504221414 | 26 | 142 | 4.8 | 9.7 | 0.00 | 0.00 | 0.00 | 46 | 1013.9 |
| 20260504220911 | 26 | 115 | 4.8 | 6.4 | 0.00 | 0.00 | 0.00 | 46 | 1013.9 |
| 20260504220407 | 26 | 112 | 16.1 | 20.9 | 0.00 | 0.00 | 0.00 | 46 | 1014.0 |
| 20260504215905 | 26 | 187 | 11.3 | 11.3 | 0.00 | 0.00 | 0.00 | 46 | 1014.1 |
| 20260504215401 | 26 | 91 | 1.6 | 9.7 | 0.00 | 0.00 | 0.00 | 47 | 1014.2 |
| 20260504214857 | 26 | 99 | 1.6 | 9.7 | 0.00 | 0.00 | 0.00 | 46 | 1014.1 |
| 20260504214354 | 26 | 109 | 6.4 | 20.9 | 0.00 | 0.00 | 0.00 | 45 | 1014.3 |
| 20260504213851 | 26 | 125 | 0.0 | 6.4 | 0.00 | 0.00 | 0.00 | 47 | 1014.1 |
| 20260504213347 | 26 | 140 | 4.8 | 11.3 | 0.00 | 0.00 | 0.00 | 46 | 1014.5 |
| 20260504212844 | 26 | 135 | 6.4 | 9.7 | 0.00 | 0.00 | 0.00 | 44 | 1014.7 |
| 20260504212340 | 26 | 143 | 6.4 | 14.5 | 0.00 | 0.00 | 0.00 | 46 | 1014.6 |
| 20260504211838 | 26 | 177 | 11.3 | 17.7 | 0.00 | 0.00 | 0.00 | 44 | 1014.4 |
| 20260504211334 | 26 | 127 | 6.4 | 11.3 | 0.00 | 0.00 | 0.00 | 45 | 1014.7 |
| 20260504210832 | 26 | 239 | 11.3 | 20.9 | 0.00 | 0.00 | 0.00 | 44 | 1014.6 |
| 20260504210328 | 26 | 190 | 6.4 | 11.3 | 0.00 | 0.00 | 0.00 | 45 | 1015.1 |
| 20260504205826 | 26 | 145 | 11.3 | 24.1 | 0.00 | 0.00 | 0.00 | 45 | 1015.1 |
| 20260504205323 | 26 | 201 | 11.3 | 14.5 | 0.00 | 0.00 | 0.00 | 44 | 1014.9 |
| 20260504204821 | 26 | 110 | 3.2 | 6.4 | 0.00 | 0.00 | 0.00 | 47 | 1015.1 |
| 20260504204320 | 26 | 113 | 6.4 | 14.5 | 0.00 | 0.00 | 0.00 | 46 | 1015.1 |
| 20260504203819 | 26 | 246 | 20.9 | 27.4 | 0.00 | 0.00 | 0.00 | 44 | 1015.4 |
| 20260504203315 | 26 | 245 | 14.5 | 20.9 | 0.00 | 0.00 | 0.00 | 45 | 1015.4 |
| 20260504202810 | 26 | 173 | 14.5 | 30.6 | 0.00 | 0.00 | 0.00 | 44 | 1015.5 |
| 20260504202308 | 26 | 125 | 35.4 | 48.3 | 0.00 | 0.00 | 0.00 | 43 | 1015.5 |
| 20260504201805 | 26 | 161 | 8.0 | 11.3 | 0.00 | 0.00 | 0.00 | 46 | 1015.8 |
| 20260504201302 | 26 | 155 | 11.3 | 14.5 | 0.00 | 0.00 | 0.00 | 48 | 1015.8 |
| 20260504200800 | 26 | 244 | 8.0 | 17.7 | 0.00 | 0.00 | 0.00 | 47 | 1015.9 |
| 20260504200255 | 26 | 138 | 3.2 | 9.7 | 0.00 | 0.00 | 0.00 | 48 | 1016.1 |
| 20260504195752 | 26 | 100 | 1.6 | 14.5 | 0.00 | 0.00 | 0.00 | 47 | 1016.0 |
| 20260504195248 | 26 | 119 | 1.6 | 14.5 | 0.00 | 0.00 | 0.00 | 48 | 1016.1 |
| 20260504194745 | 26 | 98 | 4.8 | 27.4 | 0.00 | 0.00 | 0.00 | 47 | 1016.2 |
| 20260504194241 | 25 | 157 | 11.3 | 14.5 | 0.00 | 0.00 | 0.00 | 45 | 1016.3 |
| 20260504193737 | 25 | 73 | 4.8 | 17.7 | 0.00 | 0.00 | 0.00 | 46 | 1016.8 |
| 20260504193235 | 25 | 152 | 1.6 | 9.7 | 0.00 | 0.00 | 0.00 | 49 | 1016.6 |
| 20260504192733 | 25 | 71 | 8.0 | 27.4 | 0.00 | 0.00 | 0.00 | 49 | 1016.6 |
| 20260504192231 | 25 | 274 | 9.7 | 11.3 | 0.00 | 0.00 | 0.00 | 48 | 1016.6 |
| 20260504191730 | 25 | 211 | 9.7 | 14.5 | 0.00 | 0.00 | 0.00 | 48 | 1016.8 |
| 20260504191226 | 25 | 150 | 3.2 | 11.3 | 0.00 | 0.00 | 0.00 | 48 | 1016.8 |
| 20260504190721 | 25 | 130 | 3.2 | 11.3 | 0.00 | 0.00 | 0.00 | 50 | 1017.4 |
| 20260504190218 | 25 | 137 | 4.8 | 24.1 | 0.00 | 0.00 | 0.00 | 47 | 1017.3 |
| 20260504185715 | 25 | 210 | 8.0 | 33.8 | 0.00 | 0.00 | 0.00 | 49 | 1017.0 |
| 20260504185212 | 25 | 212 | 3.2 | 17.7 | 0.00 | 0.00 | 0.00 | 48 | 1016.9 |
| 20260504184708 | 25 | 134 | 4.8 | 17.7 | 0.00 | 0.00 | 0.00 | 48 | 1017.1 |
| 20260504184203 | 25 | 195 | 12.9 | 24.1 | 0.00 | 0.00 | 0.00 | 48 | 1017.2 |
| 20260504183659 | 25 | 109 | 1.6 | 20.9 | 0.00 | 0.00 | 0.00 | 48 | 1017.4 |
| 20260504183157 | 25 | 111 | 3.2 | 14.5 | 0.00 | 0.00 | 0.00 | 49 | 1017.5 |
| 20260504182654 | 25 | 239 | 14.5 | 17.7 | 0.00 | 0.00 | 0.00 | 48 | 1017.6 |
| 20260504182152 | 25 | 97 | 11.3 | 14.5 | 0.00 | 0.00 | 0.00 | 48 | 1017.5 |
| 20260504181649 | 24 | 136 | 8.0 | 24.1 | 0.00 | 0.00 | 0.00 | 48 | 1017.8 |
| 20260504181147 | 23 | 128 | 4.8 | 14.5 | 0.00 | 0.00 | 0.00 | 49 | 1017.6 |
| 20260504180646 | 24 | 159 | 11.3 | 27.4 | 0.00 | 0.00 | 0.00 | 49 | 1017.6 |
| 20260504180144 | 24 | 116 | 4.8 | 20.9 | 0.00 | 0.00 | 0.00 | 50 | 1017.8 |
| 20260504175641 | 24 | 96 | 3.2 | 20.9 | 0.00 | 0.00 | 0.00 | 52 | 1017.6 |
| 20260504175137 | 23 | 153 | 6.4 | 33.8 | 0.00 | 0.00 | 0.00 | 50 | 1017.9 |
| 20260504174636 | 24 | 106 | 0.0 | 9.7 | 0.00 | 0.00 | 0.00 | 50 | 1017.8 |
| 20260504174132 | 25 | 134 | 9.7 | 27.4 | 0.00 | 0.00 | 0.00 | 50 | 1018.1 |
| 20260504173629 | 24 | 150 | 6.4 | 9.7 | 0.00 | 0.00 | 0.00 | 51 | 1018.1 |
| 20260504173127 | 24 | 154 | 4.8 | 27.4 | 0.00 | 0.00 | 0.00 | 53 | 1018.1 |
| 20260504172623 | 24 | 41 | 8.0 | 24.1 | 0.00 | 0.00 | 0.00 | 51 | 1018.2 |
| 20260504172120 | 24 | 149 | 8.0 | 14.5 | 0.00 | 0.00 | 0.00 | 50 | 1018.2 |
| 20260504171616 | 24 | 187 | 6.4 | 20.9 | 0.00 | 0.00 | 0.00 | 50 | 1018.1 |
| 20260504171113 | 24 | 242 | 6.4 | 11.3 | 0.00 | 0.00 | 0.00 | 51 | 1018.1 |
| 20260504170609 | 23 | 236 | 8.0 | 14.5 | 0.00 | 0.00 | 0.00 | 52 | 1018.2 |
| 20260504170107 | 24 | 152 | 4.8 | 14.5 | 0.00 | 0.00 | 0.00 | 51 | 1018.2 |